Regional Weather Roundup
Issued by NWS Midland/Odessa, TX

Skip options and go directly to product.
Home | Oldest Version | Previous Version | Current Version | All | Graphics & Text | Save Text | Print | Product List | Glossary On

Skip product version selection by date and time.   
991
ASUS44 KMAF 282302
RWRMAF
MIDLAND AREA WEATHER ROUNDUP
NATIONAL WEATHER SERVICE MIDLAND TX
500 PM CST FRI NOV 28 2014

...IN SOUTHWEST TEXAS AND SOUTHEAST NEW MEXICO...

CITY           SKY/WX    TMP DP  RH WIND       PRES   REMARKS
ALPINE         CLEAR     67  17  14 SW14      30.17S
ANDREWS        FAIR      72  23  16 SW14      30.03S
ARTESIA        NOT AVBL
BIG SPRING     CLEAR     74  31  20 S12       30.04F
CARLSBAD       CLEAR     73  28  18 SE6       30.00F
DRYDEN           N/A     67  35  30 SE13      30.07S
FORT STOCKTON  CLEAR     75  16  10 SW15      30.04F
GUAD PASS      NOT AVBL
HOBBS          CLEAR     70  23  17 S9        30.04R
MARFA          CLEAR     66  18  15 S15       30.16S
MIDLAND AIRPK  CLEAR     73  24  16 SW14      30.04S
MIDLAND INTL   CLEAR     72  23  16 SW9       30.03F
ODESSA         CLEAR     72  19  13 SW10      30.04F
PECOS          CLEAR     76  26  16 CALM      30.02F
PRESIDIO       FAIR      71  26  18 CALM      30.08F
SEMINOLE       CLEAR     72  22  15 SW14      30.03F
SNYDER         CLEAR     72  31  21 SW14G22   30.00S
WINK           CLEAR     76  14   9 W12       30.01F
$$
...OTHER STATIONS IN TEXAS...

CITY           SKY/WX    TMP DP  RH WIND       PRES   REMARKS
ABILENE        CLEAR     70  38  31 S18       30.01S
AMARILLO       CLEAR     77  12   8 SW16G25   29.89S
AUSTIN         CLEAR     70  46  42 S15       30.11F
BROWNSVILLE    CLEAR     72  57  59 S15       30.16F
CORPUS CHRISTI CLEAR     71  54  54 SE14      30.15S
DALLAS FTW     PTCLDY    67  49  52 S20       30.01F
DEL RIO        CLEAR     70  47  43 SE12      30.08F
EL PASO        MOSUNNY   68  19  15 S5        30.09F
HOUSTON INT    PTCLDY    68  55  63 S8G17     30.17F
LUBBOCK        PTCLDY    74  23  15 SW15      29.96S
SAN ANGELO     CLEAR     70  37  29 S16G24    30.04F
SAN ANTONIO    PTCLDY    71  48  43 S10       30.12F
WACO           CLEAR     68  49  50 S16       30.08S
WICHITA FALLS  NOT AVBL
$$
...OTHER LOCATIONS IN NEW MEXICO...

CITY           SKY/WX    TMP DP  RH WIND       PRES   REMARKS
ALAMAGORDO     CLEAR     66  21  18 S6        30.10F
ALBUQUERQUE    PTCLDY    60  20  21 S7        30.10F
CANNON AFB     CLEAR     74  14  10 SW10      29.99F
CLOVIS         CLEAR     73  16  11 SW13      29.98S
HOLLOMAN AFB   CLEAR     66  21  17 S7        30.08F
ROSWELL        CLEAR     70  31  23 S7        29.99F
RUIDOSO        CLEAR     59  19  21 W8        30.18F
SANTA FE       CLEAR     58  15  18 SW6       30.12S
TRUTH OR CONSE SUNNY     66  20  17 S10       30.09F
TUCUMCARI      PTCLDY    79  11   7 SW24G31   29.91F
$$

USA.gov is the U.S. government's official web portal to all federal, state and local government web resources and services.